Weather in Bol'shoye Prosekovo

Russia / Kurgan Oblast     55°56′17″N   66°12′20″E
temp.,
°C
wind,
m/s
gust,
m/s
humid.,
%
clouds,
%
prec.,
mm/h
press.,
hPa
HPBL,
m
19 april, mon
mon1923:00−4nne712430 0.0 10301168
02:00−5nne610450 0.0 10311112
05:00−6nne47481 0.0 10331045
08:00−5nne46405 0.0 10341178
11:00−2n563297 0.0 10341824
14:00+1n6728100 0.0 10332298
17:00+1n5731100 0.0 10322205
20:00−2ne334664 0.0 103328
20 april, tue
tue2023:00−4ene23515 0.0 103441
02:00−4e22531 0.0 103437
05:00−4s11505 0.0 103410
08:00−1wnw23375 0.0 1034482
11:00+2wnw342912 0.0 10321230
14:00+5w56305 0.0 10301681
17:00+7wnw68345 0.0 10281773
20:00+3w46535 0.0 102794
21 april, wed
wed2123:00+2w36605 0.0 102787
02:00+1wnw37685 0.0 1027114
05:000nw37755 0.0 1027113
08:00+4n46685 0.0 1029313
11:00+7n5661100 0.0 10301274
14:00+8n565293 0.0 10311467
17:00+9n454682 0.0 10321642
20:00+6n226120 0.0 103419
22 april, thu
thu2223:00+3ese33595 0.0 103537
02:00+2se35660 0.0 103679
05:00+1se36723 0.0 103885
08:00+5sse57574 0.0 1039337
11:00+9sse55440 0.0 10391020
14:00+11s45385 0.0 10381529
17:00+12s45375 0.0 10381639
20:00+8se49533 0.0 1038153
23 april, fri
fri2323:00+6sse512575 0.0 1038253
02:00+4sse511615 0.0 1038236
05:00+3sse496617 0.0 1038167
08:00+7sse57525 0.0 1039274
11:00+12sse56415 0.0 1038795
14:00+14sse553881 0.0 10361835
17:00+15sse4437100 0.0 10351978
20:00+11sse4652100 0.0 103594